Danville, VA

9:38 AM EDT on April 28, 2017 (GMT -0400)
Danville Regional

Weather History for KDAN - April, 2012

Change the Weather History Date:

Wednesday, April 4, 2012

  Actual Average Record
Temperature  
Mean Temperature 70 °F 55 °F  
Max Temperature 83 °F 66 °F 90 °F (1967)
Min Temperature 57 °F 44 °F 29 °F (1992)
Degree Days  
Heating Degree Days 0 11  
Month to date heating degree days 20 45  
Since 1 July heating degree days 2998 3556  
Cooling Degree Days 5 1  
Month to date cooling degree days 5 3  
Year to date cooling degree days 16 6  
Growing Degree Days 20 (Base 50)    
Moisture  
Dew Point 58 °F    
Average Humidity 71    
Maximum Humidity 100    
Minimum Humidity 42    
Precipitation  
Precipitation 0.05 in 0.12 in 1.45 in (2000)
Month to date precipitation 0.05 0.52  
Year to date precipitation 7.71 11.06  
Snow  
Snow 0.00 in - - ()
Month to date snowfall 0.0  
Since 1 July snowfall 3.0  
Snow Depth 0.00 in    
Sea Level Pressure  
Sea Level Pressure 29.70 in    
Wind  
Wind Speed 6 mph (WSW)    
Max Wind Speed 15 mph    
Max Gust Speed 20 mph    
Visibility 10 miles    
Events Rain , Thunderstorm    
T = Trace of Precipitation, MM = Missing Value Source: NWS Daily Summary

Daily Weather History Graph

Daily Weather History Graph

Search for Another Location

Airport or City:

Trip Planner

Search our weather history database for the weather conditions in past years. The results will help you decide how hot, cold, wet, or windy it might be!

Date:

Astronomy

Apr. 04, 2012 Rise Set
Actual Time 6:58 AM EDT 7:42 PM EDT
Civil Twilight 6:32 AM EDT 8:08 PM EDT
Nautical Twilight 6:01 AM EDT 8:39 PM EDT
Astronomical Twilight 5:29 AM EDT 9:11 PM EDT
Moon 5:36 PM EDT (4/4) 5:15 AM EDT (4/4)
Length of Visible Light 13h 36m
Length of Day
12h 44m
Waxing Gibbous, 93% of the Moon is Illuminated
Apr 4
Waxing Gibbous
Apr 6
Full
Apr 13
Last Quarter
Apr 21
New
Apr 29
First Quarter

Hourly Weather History & Observations

Time (EDT) Temp. Heat Index Dew Point Humidity Pressure Visibility Wind Dir Wind Speed Gust Speed Precip Events Conditions
12:53 AM 63.0 °F - 54.0 °F 72% 29.79 in 10.0 mi WNW 3.5 mph - N/A   Clear
1:53 AM 62.1 °F - 55.0 °F 78% 29.80 in 10.0 mi SW 5.8 mph - N/A   Clear
2:53 AM 64.0 °F - 53.1 °F 67% 29.79 in 10.0 mi West 9.2 mph - N/A   Clear
3:53 AM 62.1 °F - 54.0 °F 75% 29.78 in 10.0 mi SW 8.1 mph - N/A   Clear
4:53 AM 57.2 °F - 53.6 °F 88% 29.79 in 10.0 mi WSW 6.9 mph - N/A   Clear
5:53 AM 60.1 °F - 55.9 °F 86% 29.77 in 10.0 mi West 9.2 mph - N/A   Clear
6:53 AM 57.9 °F - 55.0 °F 90% 29.78 in 10.0 mi WSW 6.9 mph - N/A   Clear
7:53 AM 57.2 °F - 55.4 °F 94% 29.80 in 10.0 mi Calm Calm - N/A   Clear
8:53 AM 63.0 °F - 57.0 °F 81% 29.77 in 10.0 mi SSW 5.8 mph - N/A   Clear
9:53 AM 69.1 °F - 57.9 °F 68% 29.75 in 10.0 mi WSW 8.1 mph - N/A   Clear
10:53 AM 73.0 °F - 57.9 °F 59% 29.73 in 10.0 mi WSW 6.9 mph - N/A   Clear
11:53 AM 78.1 °F - 57.9 °F 50% 29.72 in 10.0 mi NW 5.8 mph - N/A   Clear
12:53 PM 80.1 °F 80.6 °F 57.9 °F 47% 29.70 in 10.0 mi West 8.1 mph - N/A   Clear
1:53 PM 80.1 °F 80.4 °F 57.0 °F 45% 29.68 in 10.0 mi NW 8.1 mph - N/A   Partly Cloudy
2:13 PM 82.4 °F 82.0 °F 57.2 °F 42% 29.69 in 10.0 mi West 13.8 mph 17.3 mph N/A Thunderstorm Partly Cloudy
2:36 PM 80.6 °F 80.5 °F 55.4 °F 42% 29.68 in 10.0 mi West 8.1 mph 19.6 mph N/A Thunderstorm Partly Cloudy
2:51 PM 80.6 °F 80.3 °F 53.6 °F 39% 29.67 in 10.0 mi NW 12.7 mph - N/A   Mostly Cloudy
2:53 PM 79.0 °F - 54.0 °F 42% 29.65 in 10.0 mi NW 10.4 mph - N/A   Mostly Cloudy
3:11 PM 77.0 °F - 57.2 °F 50% 29.67 in 10.0 mi West 8.1 mph - 0.00 in Rain , Thunderstorm Light Rain
3:39 PM 77.0 °F - 59.0 °F 54% 29.65 in 10.0 mi SSW 9.2 mph - 0.00 in   Partly Cloudy
3:53 PM 77.0 °F - 61.0 °F 58% 29.62 in 10.0 mi SSW 8.1 mph - 0.00 in   Partly Cloudy
4:53 PM 77.0 °F - 61.0 °F 58% 29.59 in 10.0 mi SSW 5.8 mph - N/A   Partly Cloudy
5:53 PM 71.6 °F - 57.2 °F 60% 29.63 in 10.0 mi SW 3.5 mph - N/A Rain Light Rain
6:14 PM 69.8 °F - 60.8 °F 73% 29.65 in 9.0 mi WNW 5.8 mph - 0.01 in Rain , Thunderstorm Light Thunderstorms and Rain
6:34 PM 66.2 °F - 62.6 °F 88% 29.66 in 5.0 mi WSW 5.8 mph - 0.04 in Rain Light Rain
6:53 PM 64.9 °F - 63.0 °F 93% 29.63 in 9.0 mi South 3.5 mph - 0.04 in   Scattered Clouds
7:53 PM 62.6 °F - 62.6 °F 100% 29.65 in 7.0 mi Calm Calm - N/A   Partly Cloudy
8:53 PM 64.0 °F - 61.0 °F 90% 29.65 in 10.0 mi SSW 5.8 mph - 0.01 in   Mostly Cloudy
9:53 PM 62.1 °F - 60.1 °F 93% 29.66 in 10.0 mi SW 8.1 mph - N/A   Partly Cloudy
10:53 PM 59.0 °F - 59.0 °F 100% 29.65 in 9.0 mi SW 5.8 mph - N/A   Clear
11:53 PM 62.1 °F - 61.0 °F 96% 29.65 in 10.0 mi West 5.8 mph - N/A   Clear